Location: Unspecified
(43.4354°N, 0.0000°E)
Time: 15:55:41
(UTC+00:00)

Transit 2A - Pass Details

Date: 18 June 2019
Orbit: 597 x 962 km, 66.7° (Epoch: 21 August)

Event Time Altitude Azimuth Distance (km) Brightness Sun altitude
Rises 02:39:59 0° 245° (WSW) 3,626 - -13.9°
Reaches altitude 10° 02:42:54 10° 256° (WSW) 2,694 - -13.5°
Exits shadow 02:42:55 10° 257° (WSW) 2,690 8.4 -13.5°
Maximum altitude 02:48:22 29° 316° (NW) 1,669 7.8 -12.9°
Drops below altitude 10° 02:53:44 10° 15° (NNE) 2,647 9.9 -12.3°
Sets 02:56:36 0° 27° (NNE) 3,553 11.2 -12.0°
